Burlington, WA
on Thursday, January 17, 2013

Thursday
Previous Day Next Day
Daily Summary
 ActualAverage (KBLI)Record (KBLI)
Temperature
Mean Temperature °F 39°F  
Max Temperature 42°F 46°F 59°F (1977)
Min Temperature 28°F 33°F 7°F (1950)
Degree Days
Heating Degree Days 30 26  
Month to date heating degree days 448  
Cooling Degree Days 0 0  
Month to date cooling degree days 0  
Year to date cooling degree days 0  
Moisture
Dew Point 33°F   
Average Humidity 98    
Maximum Humidity 100    
Minimum Humidity 81    
Precipitation
Precipitation 0.00 in 0.17 in 1.45 in (2005)
Month to date precipitation 2.63  
Year to date precipitation 2.63  
Wind
Wind Speed 2 mph   
Max Wind Speed 6 mph   
Max Gust Speed mph   
Visibility 5 miles   
Events     

Key: T is trace of precipitation, MM is missing value
Source: NWS Daily Summary
Time(PST)TemperatureDew PointHumidity Pressure Visibility Wind DirectionWind SpeedGust SpeedPrecipitationEvents Conditions
12:15 AM - - N/A% 30.55 in 8.0 miles Calm Calm - 0.00 in   Clear
12:35 AM 32.0°F 32.0°F 100% 30.54 in 8.0 miles North 3.5 mph - 0.00 in   Clear
12:55 AM 32.0°F 32.0°F 100% 30.54 in 9.0 miles Calm Calm - 0.00 in   Clear
1:15 AM 30.2°F 30.2°F 100% 30.55 in 8.0 miles Calm Calm - 0.00 in   Clear
1:35 AM 30.2°F 30.2°F 100% 30.54 in 5.0 miles NW 3.5 mph - 0.00 in   Clear
1:55 AM 32.0°F 32.0°F 100% 30.53 in 8.0 miles Calm Calm - 0.00 in   Clear
2:15 AM 30.2°F 30.2°F 100% 30.53 in 8.0 miles North 3.5 mph - 0.00 in   Clear
2:35 AM 32.0°F 32.0°F 100% 30.52 in 7.0 miles Calm Calm - 0.00 in   Clear
2:55 AM - - N/A% 30.51 in 7.0 miles NW 3.5 mph - 0.00 in   Clear
3:15 AM 30.2°F 30.2°F 100% 30.51 in 7.0 miles NNE 3.5 mph - 0.00 in   Clear
3:35 AM 32.0°F 32.0°F 100% 30.51 in 6.0 miles NNW 3.5 mph - 0.00 in   Clear
3:55 AM 28.4°F 28.4°F 100% 30.50 in 5.0 miles NW 4.6 mph - 0.00 in   Clear
4:15 AM - - N/A% 30.49 in 5.0 miles NW 5.8 mph - 0.00 in   Clear
4:35 AM 30.2°F 30.2°F 100% 30.49 in 5.0 miles NNW 3.5 mph - 0.00 in   Clear
4:55 AM 30.2°F 30.2°F 100% 30.49 in 5.0 miles Calm Calm - 0.00 in   Clear
5:15 AM 30.2°F 30.2°F 100% 30.48 in 4.0 miles Calm Calm - 0.00 in   Clear
5:35 AM 32.0°F 32.0°F 100% 30.47 in 6.0 miles Calm Calm - 0.00 in   Clear
5:55 AM 30.2°F 30.2°F 100% 30.47 in 3.0 miles Calm Calm - 0.00 in   Clear
6:15 AM 32.0°F 32.0°F 100% 30.47 in 7.0 miles Calm Calm - 0.00 in   Clear
6:35 AM 28.4°F 28.4°F 100% 30.47 in 5.0 miles East 3.5 mph - 0.00 in   Clear
6:55 AM 28.4°F 28.4°F 100% 30.46 in 7.0 miles NE 3.5 mph - 0.00 in   Clear
7:15 AM 28.4°F 28.4°F 100% 30.46 in 7.0 miles Calm Calm - 0.00 in   Clear
7:35 AM 28.4°F 28.4°F 100% 30.46 in 6.0 miles ENE 3.5 mph - 0.00 in   Clear
7:55 AM 30.2°F 30.2°F 100% 30.46 in 5.0 miles Calm Calm - 0.00 in   Clear
8:15 AM 28.4°F 28.4°F 100% 30.46 in 5.0 miles NW 4.6 mph - 0.00 in   Clear
8:35 AM 30.2°F 30.2°F 100% 30.46 in 5.0 miles Calm Calm - 0.00 in   Clear
8:55 AM 30.2°F 30.2°F 100% 30.47 in 6.0 miles Calm Calm - 0.00 in   Clear
9:15 AM 32.0°F 32.0°F 100% 30.47 in 6.0 miles Calm Calm - 0.00 in   Clear
9:35 AM 32.0°F 32.0°F 100% 30.47 in 5.0 miles Calm Calm - 0.00 in   Clear
9:55 AM 32.0°F 32.0°F 100% 30.47 in 6.0 miles South 3.5 mph - 0.00 in   Clear
10:15 AM 32.0°F 32.0°F 100% 30.47 in 6.0 miles Calm Calm - 0.00 in   Clear
10:35 AM 33.8°F 33.8°F 100% 30.46 in 6.0 miles Calm Calm - 0.00 in   Clear
10:55 AM 35.6°F 35.6°F 100% 30.46 in 7.0 miles Calm Calm - 0.00 in   Clear
11:15 AM 35.6°F 35.6°F 100% 30.45 in 7.0 miles East 3.5 mph - 0.00 in   Clear
11:35 AM 37.4°F 37.4°F 100% 30.44 in 7.0 miles Calm Calm - 0.00 in   Clear
11:55 AM 37.4°F 35.6°F 93% 30.43 in 6.0 miles SSE 4.6 mph - 0.00 in   Clear
12:15 PM 35.6°F 35.6°F 100% 30.43 in 7.0 miles Calm Calm - 0.00 in   Clear
12:35 PM 39.2°F 37.4°F 93% 30.42 in 7.0 miles Calm Calm - 0.00 in   Clear
12:55 PM 39.2°F 37.4°F 93% 30.41 in 7.0 miles East 4.6 mph - 0.00 in   Clear
1:15 PM 39.2°F 37.4°F 93% 30.40 in 8.0 miles East 3.5 mph - 0.00 in   Clear
1:35 PM 41.0°F 37.4°F 87% 30.39 in 9.0 miles SE 3.5 mph - 0.00 in   Clear
1:55 PM 41.0°F 37.4°F 87% 30.37 in 9.0 miles South 3.5 mph - 0.00 in   Clear
2:15 PM 41.0°F 37.4°F 87% 30.37 in 8.0 miles Calm Calm - 0.00 in   Clear
2:35 PM 42.8°F 37.4°F 81% 30.36 in 8.0 miles Calm Calm - 0.00 in   Clear
2:55 PM 42.8°F 39.2°F 87% 30.36 in 8.0 miles SSW 3.5 mph - 0.00 in   Clear
3:15 PM 42.8°F 39.2°F 87% 30.35 in 7.0 miles SSE 3.5 mph - 0.00 in   Clear
3:35 PM 41.0°F 39.2°F 93% 30.34 in 8.0 miles SSE 4.6 mph - 0.00 in   Clear
4:15 PM 37.4°F 37.4°F 100% 30.34 in 7.0 miles SSW 3.5 mph - 0.00 in   Clear
4:55 PM 35.6°F 35.6°F 100% 30.34 in 7.0 miles South 3.5 mph - 0.00 in   Clear
5:35 PM 33.8°F 33.8°F 100% 30.33 in 5.0 miles SSW 3.5 mph - 0.00 in   Clear
5:55 PM 33.8°F 33.8°F 100% 30.34 in 7.0 miles Calm Calm - 0.00 in   Clear
6:15 PM 33.8°F 33.8°F 100% 30.33 in 7.0 miles Calm Calm - 0.00 in   Clear
6:55 PM 32.0°F 32.0°F 100% 30.33 in 0.5 miles Calm Calm - 0.00 in   Mostly Cloudy
7:15 PM 30.2°F 30.2°F 100% 30.33 in 0.5 miles South 3.5 mph - 0.00 in   Overcast
7:35 PM - - N/A% 30.33 in 0.2 miles Calm Calm - 0.00 in   Overcast
7:55 PM 32.0°F 32.0°F 100% 30.33 in 0.2 miles Calm Calm - 0.00 in   Overcast
9:15 PM 32.0°F 32.0°F 100% 30.33 in 0.2 miles Calm Calm - 0.00 in   Overcast
9:35 PM - - N/A% 30.33 in 0.2 miles Calm Calm - 0.00 in   Overcast
9:55 PM 30.2°F 30.2°F 100% 30.33 in 0.2 miles Calm Calm - 0.00 in   Overcast
10:15 PM 30.2°F 30.2°F 100% 30.32 in 0.2 miles Calm Calm - 0.00 in   Overcast
10:35 PM 30.2°F 30.2°F 100% 30.31 in 0.2 miles Calm Calm - 0.00 in   Overcast
10:55 PM 30.2°F 30.2°F 100% 30.31 in 0.2 miles Calm Calm - 0.00 in   Overcast
11:15 PM 30.2°F 30.2°F 100% 30.31 in 0.2 miles Calm Calm - 0.00 in   Overcast
11:35 PM 30.2°F 30.2°F 100% 30.31 in 0.2 miles Calm Calm - 0.00 in   Overcast
11:55 PM 30.2°F 30.2°F 100% 30.31 in 0.2 miles Calm Calm - 0.00 in   Overcast
Moon Phase
Jan. 17 Jan. 18 Jan. 26 Feb. 03 Feb. 10
Sunrise:07:54 AM (PST) Moon Rise:10:28 AM (PST)1/17
Sunset:04:45 PM (PST) Moon Set:No Moon Set/

Copyright © 2014 The Weather Underground, Inc.